This demonstration page uses our WeatherBlox Daily Observations layout. Learn more.

Left ArrowRight Arrow

Hourly Observations for May 6, 2018

Temp ( °F °C ) Dew Point ( °F °C ) Humidity (%) Winds ( mph kmh ) Pressure ( in mb ) Visibility ( mi km ) Precip ( " mm )
12:53 am 00:53 Clear 52 11.1 42 5.6 69 69 ENE 10 17 30.10 1019 10 16 0.00 0.00
1:53 am 01:53 Clear 52 11.1 43 6.1 72 72 E 6 9 30.10 1019 10 16 0.00 0.00
2:53 am 02:53 Clear 50 10 43 6.1 77 77 undefined N/A 30.10 1019 10 16 0.00 0.00
3:53 am 03:53 Clear 46 7.8 40 4.4 79 79 Calm 30.11 1020 10 16 0.00 0.00
4:53 am 04:53 Clear 43 6.1 39 3.9 86 86 WSW 3 6 30.11 1020 10 16 0.00 0.00
5:53 am 05:53 Sunny 41 5 38 3.3 89 89 SW 3 6 30.12 1020 10 16 0.00 0.00
6:53 am 06:53 Sunny 44 6.7 40 4.4 85 85 Calm 30.14 1021 10 16 0.00 0.00
7:53 am 07:53 Sunny 51 10.6 43 6.1 74 74 NE 3 6 30.12 1020 10 16 0.00 0.00
8:53 am 08:53 Sunny 60 15.6 44 6.7 56 56 Calm 30.12 1020 10 16 0.00 0.00
9:53 am 09:53 Sunny 66 18.9 44 6.7 45 45 Calm 30.10 1019 10 16 0.00 0.00
10:53 am 10:53 Sunny 70 21.1 43 6.1 38 38 VRB 3 6 30.08 1019 10 16 0.00 0.00
11:53 am 11:53 Sunny 74 23.3 44 6.7 34 34 VRB 5 7 30.04 1017 10 16 0.00 0.00
12:53 pm 12:53 Sunny 78 25.6 43 6.1 29 29 NNE 8 13 30.01 1016 10 16 0.00 0.00
1:53 pm 13:53 Mostly Sunny 80 26.7 39 3.9 23 23 E 7 11 29.98 1015 10 16 0.00 0.00
2:53 pm 14:53 Mostly Sunny 80 26.7 39 3.9 23 23 SW 6 9 29.97 1015 10 16 0.00 0.00
3:53 pm 15:53 Sunny 79 26.1 38 3.3 23 23 VRB 3 6 29.95 1014 10 16 0.00 0.00
4:53 pm 16:53 Sunny 81 27.2 38 3.3 21 21 VRB 3 6 29.94 1014 10 16 0.00 0.00
5:53 pm 17:53 Sunny 80 26.7 37 2.8 21 21 ESE 5 7 29.92 1013 10 16 0.00 0.00
6:53 pm 18:53 Sunny 81 27.2 38 3.3 21 21 Calm 29.90 1013 10 16 0.00 0.00
7:53 pm 19:53 Sunny 75 23.9 39 3.9 27 27 NNE 6 9 29.88 1012 10 16 0.00 0.00
8:53 pm 20:53 Mostly Cloudy 70 21.1 44 6.7 39 39 E 5 7 29.88 1012 10 16 0.00 0.00
9:53 pm 21:53 Clear 66 18.9 48 8.9 52 52 E 10 17 29.88 1012 10 16 0.00 0.00
10:53 pm 22:53 Mostly Cloudy 67 19.4 45 7.2 45 45 NE 8 13 29.87 1012 10 16 0.00 0.00
11:53 pm 23:53 Mostly Cloudy 63 17.2 45 7.2 52 52 WNW 3 6 29.86 1011 10 16 0.00 0.00

Powered by AerisWeather